STARLINK T (44252 NORAD) Tracking and Keplerian Element Data

This shows tracking and keplerian element data for the satellite.

Feedback or suggestion? Click here.




ElementValue
Catalog44252
NameSTARLINK T
Epoch Orbit205
Epoch Day162.93285566
Epoch Year2019
RAAN87.5686
Inclination52.9996
Eccentricity0.0003897
Argument of Perigee55.6775
Mean Anonmoly304.4584
Mean Motion15.1037106
Decay Rate-0.00913131
L11 44252U 19029T 19162.93285566 -.00913131 00000-0 -59396-1 0 9994
L22 44252 52.9996 87.5686 0003897 55.6775 304.4584 15.10371060 2050

Live tracking and technical data element details for STARLINK T (NORAD 44252). STARLINK T can be tracked NOW for your location showing map with azimuth and elevation plus other details from your city location.

Track the satellite on the map from your city or location and see movement details for azimuth, elevation, latitude, longitude, range, height, and movement on the map or in text.







IsCatalogInMostPopularTable: catalog: 44252, numindb: 25
Update: records affected: 1



GetName: 44252 STARLINK T

Hit Count: updated at: Mon, 15 Jul 2019 22:12:01 GMT